Back to catalog

ARIANE 42P+ DEB

LostHEO
NORAD 34193·DEBRIS·🇫🇷 France

Launched Oct 28, 1992 from Guiana Space Centre

Loading…

Next Passes (next 24 hours)

TLE

StaleSource: Space-Track

Epoch: Jun 24, 2024, 01:34 UTC

1 34193U 92072Z   24176.06529847  .00000372  00000-0  81536-3 0  9999
2 34193   8.5632  61.6846 6516084 238.1465  42.3256  3.18973625251808

Track ARIANE 42P+ DEB in real time with AllMySat

Download on the App Store